Wind_Speed
28 30 30 31 30 31 28 27 27 26 25 25 24 25 22 20 20 22 23 25 28 28 30 30 26 24 27 28 21 21 21 25 27 25 28 29 31 31 32 33 35 35 34 31 29 26 22 24 24
29 31 32 30 27 25 23 24 25 24 24 22 19 17 16 20 22 24 27 30 32 36 37 30 28 28 32 23 20 21 28 28 29 29 33 35 37 37 38 36 33 31 28 27 30 26 25 24 26
31 31 27 24 22 22 21 22 23 22 20 18 17 19 21 24 25 26 28 29 28 22 18 18 19 16 19 18 21 26 30 33 33 35 37 39 40 38 36 33 27 28 27 22 24 27 27 28 26
29 28 26 20 20 21 22 23 22 22 21 21 21 20 23 23 24 25 26 26 26 22 21 17 15 17 19 24 31 33 34 34 34 35 35 34 33 31 29 25 25 27 26 25 24 23 24 26 24
23 19 19 20 18 16 15 15 17 18 11 10 10 11 13 14 16 18 20 22 20 24 20 21 23 26 29 33 35 33 29 27 26 26 24 24 25 25 24 24 24 23 23 22 22 21 23 22 21
14 11 13 14 11 9 13 14 9 6 7 8 10 9 11 13 15 13 16 13 14 17 19 23 26 27 27 23 20 19 20 23 24 25 24 23 24 24 24 22 20 20 20 21 21 20 20 20 21
4 6 4 5 10 12 13 11 5 4 7 8 8 9 13 17 16 13 13 15 17 18 19 20 20 21 21 20 20 21 20 18 16 17 18 19 19 19 18 17 16 16 17 16 11 11 12 12 12
7 5 1 8 12 11 10 3 3 3 7 8 8 8 8 12 14 15 15 14 13 13 11 11 12 12 12 12 11 10 11 14 15 15 16 17 17 17 17 19 20 20 20 21 20 19 18 17 17
6 2 5 9 9 4 1 3 7 11 15 16 14 13 12 12 12 12 12 12 13 11 10 12 13 12 13 12 13 15 16 19 21 23 24 23 23 23 24 25 25 24 23 23 23 24 23 22 21
8 7 9 11 12 13 15 15 14 12 11 10 10 10 10 8 8 8 9 9 10 10 11 12 15 17 17 17 19 21 22 23 24 26 25 25 24 24 25 25 26 25 26 26 26 26 26 26 24
17 16 18 17 15 15 14 13 10 7 7 5 6 6 6 6 5 4 6 9 11 14 16 17 16 16 17 18 18 20 22 24 25 27 27 28 28 28 29 29 28 28 27 27 28 28 27 28 26
16 16 14 14 13 12 11 9 9 5 4 5 7 8 9 8 8 7 8 12 14 14 16 17 18 17 16 18 20 23 23 24 25 27 28 29 31 32 32 32 34 36 37 37 37 36 34 33 32
14 15 13 12 9 7 9 6 4 5 6 7 7 8 9 10 8 8 9 12 13 15 17 21 22 23 23 23 23 24 26 27 28 29 32 33 34 36 37 39 40 40 39 38 40 41 42 41 40
7 9 7 7 7 6 5 4 6 7 7 7 10 10 9 11 13 13 12 14 16 19 21 23 23 25 26 28 29 30 31 32 33 36 39 40 40 41 41 42 44 45 44 44 44 43 43 44 45
6 6 4 3 5 5 5 6 5 4 5 7 9 11 12 13 17 17 18 19 20 23 26 28 28 29 31 33 34 35 37 39 40 44 47 47 46 47 48 48 49 47 47 48 49 47 46 47 48
1 2 2 2 4 5 6 3 2 4 7 8 9 11 12 12 15 17 18 16 18 21 24 25 29 33 34 35 37 39 42 43 45 46 47 47 47 48 48 49 50 51 50 51 51 52 53 54 54
2 1 1 5 4 3 6 8 8 9 9 10 11 12 13 16 18 18 19 20 22 26 30 32 35 38 41 42 42 44 45 46 47 47 48 50 51 52 54 55 55 56 56 56 57 58 58 58 58
3 2 3 3 4 4 3 4 8 9 12 16 17 17 19 21 24 25 26 27 26 30 35 36 39 43 44 45 43 41 44 48 50 52 53 53 53 54 56 57 60 61 60 59 59 58 58 58 58
5 6 4 4 3 6 6 9 11 14 17 18 18 22 25 25 24 28 28 29 32 34 33 36 39 39 42 45 46 47 51 51 51 52 53 55 57 59 59 58 58 58 59 59 58 58 59 60 61
7 9 8 10 8 5 9 12 15 17 19 21 22 24 25 26 26 27 29 29 30 30 32 37 40 43 48 49 49 52 52 52 52 53 52 54 56 57 58 59 59 59 61 63 62 59 55 55 55
10 9 10 11 14 11 12 15 16 17 18 20 23 25 26 25 26 29 29 29 32 33 36 40 43 46 52 52 54 56 54 54 54 54 54 55 54 56 58 60 61 62 62 61 62 62 62 61 59
14 15 14 15 14 13 16 19 19 21 24 24 27 29 29 29 30 31 29 33 30 36 40 42 44 51 52 54 55 54 53 53 53 54 55 56 57 59 60 61 63 63 65 65 65 64 66 66 66
17 18 18 17 16 15 16 20 22 25 27 29 32 33 32 32 32 31 33 35 38 42 44 47 50 50 51 53 53 54 56 57 57 57 59 60 62 64 66 67 68 67 68 67 67 67 67 69 70
19 20 19 17 17 17 20 22 24 28 32 35 35 35 34 34 34 36 38 39 43 44 45 49 48 49 53 53 56 58 58 60 61 62 63 64 65 67 69 70 72 73 74 75 76 75 74 72 65
21 20 18 17 18 20 23 26 29 32 34 34 35 35 37 36 38 38 39 42 44 46 48 50 51 52 52 57 58 59 61 65 68 69 70 71 71 70 72 76 78 78 79 79 78 76 73 71 69
17 15 17 20 21 23 28 31 31 31 35 37 39 40 41 41 43 44 46 47 47 49 51 53 53 55 60 61 62 63 65 67 71 73 72 74 77 80 79 76 78 79 79 80 79 76 72 68 65
17 17 19 23 26 27 28 28 32 33 36 38 40 42 43 43 45 46 46 48 50 52 54 57 60 58 62 66 67 65 68 71 76 77 79 82 84 84 86 85 82 84 83 80 75 66 63 59 58
19 22 25 28 31 32 31 21 28 36 38 35 38 40 41 42 44 45 45 47 51 54 55 57 61 63 65 69 73 75 78 82 81 83 85 88 89 89 88 88 85 82 82 73 63 61 59 55 51
24 26 28 30 31 32 36 29 31 34 35 34 34 36 40 43 45 44 45 49 55 54 60 63 64 66 67 69 70 71 74 80 84 86 88 90 90 88 88 84 79 75 65 59 55 54 52 51 53
24 26 30 33 34 34 35 32 34 38 35 35 38 41 44 44 42 46 51 55 59 63 65 67 67 68 70 70 73 76 81 85 89 91 92 91 90 88 84 75 65 56 53 52 49 48 48 49 50
Wind_Direction
271 269 271 274 276 278 280 281 277 260 252 247 247 251 257 262 271 279 284 287 290 299 303 305 298 293 294 282 298 303 315 306 309 307 302 298 295 296 299 301 301 302 299 286 282 286 287 286 290
269 271 271 271 268 276 273 265 260 252 249 247 246 251 262 274 275 280 284 291 295 295 295 296 293 297 295 294 301 293 303 295 294 296 293 294 294 295 294 294 294 297 301 290 275 274 276 272 279
272 276 274 274 278 275 257 251 247 243 247 251 261 264 266 267 278 286 290 296 292 294 298 303 303 288 287 288 290 291 291 282 285 288 293 296 297 297 297 296 291 294 297 290 277 267 269 275 278
273 269 269 271 265 257 253 246 241 251 258 264 266 263 269 275 277 285 288 288 283 281 279 276 278 275 274 276 283 280 284 290 294 294 296 298 302 304 302 297 293 297 296 295 290 284 279 280 282
262 265 263 255 256 259 260 263 261 263 268 279 289 304 308 307 298 290 290 289 279 276 276 281 284 282 280 282 289 292 297 299 299 301 302 302 305 308 308 306 303 300 299 296 295 294 288 285 278
260 247 258 267 267 249 244 246 250 267 289 293 294 303 312 317 315 309 315 307 302 290 285 284 284 286 294 299 296 297 300 304 311 314 313 312 313 312 312 310 302 295 292 291 292 293 291 282 277
347 256 290 266 237 245 246 257 244 283 294 304 314 314 314 321 329 329 327 316 313 320 317 316 314 304 300 307 306 307 314 324 332 341 345 344 340 334 335 340 332 315 304 296 294 296 300 306 302
93 137 100 247 244 241 259 292 69 344 295 306 315 332 2 54 42 40 35 30 24 11 2 350 341 334 325 321 322 335 338 333 329 325 323 322 322 319 319 319 320 320 320 315 308 300 299 296 293
64 141 203 209 211 204 87 39 62 84 81 72 77 70 52 40 30 21 14 8 3 8 357 351 353 351 348 344 334 330 326 322 321 320 321 321 320 317 314 312 311 310 305 301 299 300 301 297 291
124 137 156 138 113 102 104 98 87 83 71 56 57 61 48 47 37 18 8 351 342 350 352 343 345 337 335 332 328 326 324 323 320 319 318 318 316 314 310 306 302 300 299 297 297 297 295 293 292
114 123 119 113 114 109 104 102 95 77 75 57 43 44 40 43 40 6 337 330 339 344 345 343 338 327 324 321 318 315 316 319 320 321 322 321 319 318 317 314 311 306 301 298 298 296 292 290 289
125 128 122 113 112 114 109 106 111 106 71 23 360 360 358 346 337 336 335 330 329 330 331 329 321 316 315 315 317 314 316 315 315 315 314 314 314 314 314 314 312 310 309 306 303 299 297 295 292
141 135 127 118 106 99 105 98 102 65 44 36 21 8 352 325 317 316 306 306 311 319 322 323 320 320 320 317 315 313 312 311 311 311 310 309 309 309 308 308 308 306 302 300 297 295 293 291 289
120 104 98 101 89 69 43 19 14 23 35 14 7 352 333 323 317 309 308 309 313 317 318 316 313 311 310 310 310 309 307 304 303 305 305 304 303 303 303 302 301 300 300 298 297 294 290 288 288
146 138 99 51 56 30 360 346 341 318 338 340 347 336 328 327 325 329 328 331 327 322 317 315 315 312 309 308 306 302 299 297 297 298 301 302 301 298 297 298 298 296 294 294 293 291 289 287 285
71 65 34 3 315 320 326 286 177 254 277 304 307 322 336 326 314 313 307 308 304 300 297 303 308 306 305 304 304 303 303 304 303 302 302 301 299 298 298 298 298 296 295 294 293 291 289 287 285
356 320 225 269 290 302 297 316 313 293 309 313 310 315 317 311 306 303 306 307 307 307 310 315 314 311 308 307 306 306 306 305 305 304 303 302 302 301 301 300 299 297 297 296 293 290 287 285 282
290 246 216 245 303 309 326 297 307 306 307 304 307 307 305 306 310 314 314 312 305 304 306 306 308 304 302 301 302 302 305 307 304 302 300 300 299 298 296 296 297 297 298 297 295 293 290 286 283
313 292 302 298 295 297 296 287 292 300 303 306 311 310 308 307 309 314 312 305 301 300 301 298 297 299 300 299 300 305 308 308 304 302 301 301 300 299 299 299 297 297 297 295 294 292 290 288 286
301 295 305 316 324 316 288 285 285 295 303 309 310 307 301 303 307 305 298 295 297 295 293 293 297 301 304 305 306 306 305 304 302 300 301 300 300 300 300 299 300 300 299 298 297 293 289 285 284
291 290 296 303 309 312 292 290 297 297 298 297 297 293 292 299 303 300 297 297 297 290 289 294 296 296 301 306 306 305 306 306 305 306 306 304 302 300 299 297 296 294 293 292 290 289 287 286 283
300 298 295 293 289 292 288 293 296 296 294 294 294 292 296 301 305 307 302 302 301 298 297 297 297 299 303 301 301 304 303 303 304 303 303 302 301 299 297 295 294 293 291 290 290 290 289 287 287
300 300 294 290 280 279 287 293 297 299 302 299 295 295 302 308 310 307 307 304 302 303 301 299 299 299 299 302 306 305 304 305 304 302 301 300 299 298 297 297 295 294 293 292 291 291 290 288 287
291 297 297 285 280 284 292 297 303 304 300 298 300 306 312 313 309 310 309 305 303 300 296 297 301 302 304 306 306 304 302 303 303 302 300 298 297 296 296 297 297 297 296 295 295 295 294 292 288
289 292 292 282 284 290 295 298 301 303 300 301 305 310 312 310 312 307 301 298 298 300 302 303 305 305 303 304 305 305 303 303 303 303 301 299 297 297 299 298 297 296 295 294 293 292 291 290 288
294 292 289 288 288 290 296 305 308 307 302 305 309 313 311 310 308 306 305 307 308 307 307 307 307 306 308 308 305 304 304 301 300 300 300 300 301 301 300 298 295 294 293 293 293 292 290 287 285
285 287 289 288 289 294 297 305 304 300 302 307 309 307 309 308 306 308 309 309 307 307 310 310 308 306 302 300 300 299 300 303 305 303 303 302 303 302 301 299 299 298 296 293 291 288 283 281 269
295 297 297 298 301 301 301 308 299 300 305 302 303 304 304 304 304 303 304 305 306 307 304 301 303 303 301 299 298 297 298 300 304 304 303 302 301 300 300 299 300 296 294 292 286 280 277 273 267
301 301 300 301 299 302 307 314 306 301 300 302 299 300 300 301 302 304 304 303 302 301 302 303 302 299 298 297 297 298 298 300 303 303 303 303 303 303 303 303 301 298 293 288 283 279 277 271 266
300 300 301 302 303 308 309 317 308 303 305 303 307 309 308 305 302 306 306 305 303 302 302 300 300 300 300 299 299 299 297 300 302 305 305 307 307 307 304 305 301 293 288 285 283 282 280 278 276
Height
5828 5828 5827 5829 5834 5830 5830 5831 5832 5832 5832 5833 5834 5834 5834 5833 5834 5836 5834 5833 5832 5831 5831 5829 5829 5828 5828 5826 5824 5823 5823 5823 5823 5822 5818 5819 5820 5820 5820 5819 5818 5817 5815 5812 5812 5814 5815 5814 5813
5824 5824 5825 5826 5828 5827 5827 5827 5828 5829 5830 5830 5830 5830 5831 5830 5831 5831 5831 5830 5828 5828 5827 5826 5825 5823 5825 5823 5823 5822 5824 5822 5820 5817 5817 5816 5815 5814 5814 5813 5813 5812 5809 5806 5805 5805 5806 5806 5807
5821 5820 5820 5820 5823 5824 5824 5824 5826 5826 5827 5828 5829 5828 5828 5827 5828 5828 5828 5827 5824 5824 5822 5822 5821 5822 5822 5821 5820 5821 5819 5818 5816 5815 5813 5810 5809 5808 5807 5808 5807 5806 5804 5801 5799 5798 5798 5799 5800
5817 5817 5818 5820 5821 5821 5822 5822 5824 5826 5826 5826 5826 5826 5824 5825 5825 5826 5826 5824 5822 5820 5819 5818 5819 5818 5819 5819 5817 5816 5816 5815 5813 5811 5807 5806 5805 5803 5802 5802 5802 5801 5799 5797 5796 5795 5794 5794 5794
5814 5817 5816 5816 5818 5821 5822 5823 5824 5824 5824 5822 5822 5823 5822 5823 5823 5824 5823 5822 5820 5818 5817 5815 5816 5816 5816 5814 5813 5812 5811 5810 5808 5806 5804 5803 5801 5800 5798 5797 5796 5796 5795 5794 5791 5790 5789 5790 5790
5812 5814 5816 5816 5819 5820 5820 5821 5821 5822 5821 5821 5821 5822 5822 5821 5821 5820 5820 5819 5818 5816 5816 5814 5813 5812 5812 5811 5809 5808 5809 5807 5805 5803 5801 5800 5797 5796 5795 5794 5793 5792 5791 5790 5788 5788 5787 5785 5785
5812 5814 5817 5817 5818 5818 5820 5822 5822 5822 5821 5820 5820 5819 5821 5819 5818 5817 5818 5815 5817 5813 5813 5813 5811 5809 5808 5808 5807 5807 5807 5805 5803 5800 5798 5797 5796 5795 5794 5793 5791 5790 5789 5788 5787 5786 5786 5784 5782
5812 5815 5816 5817 5816 5818 5820 5820 5820 5820 5821 5820 5820 5820 5819 5819 5817 5816 5815 5814 5813 5812 5812 5811 5809 5807 5807 5806 5806 5805 5804 5802 5801 5798 5797 5796 5795 5793 5792 5791 5789 5788 5787 5786 5785 5785 5784 5782 5781
5812 5813 5814 5817 5816 5818 5819 5820 5821 5820 5821 5820 5820 5820 5820 5819 5819 5817 5817 5816 5815 5814 5813 5811 5809 5807 5806 5805 5804 5803 5801 5799 5798 5796 5794 5793 5791 5790 5789 5787 5786 5785 5784 5783 5781 5780 5780 5780 5779
5811 5814 5816 5819 5819 5819 5819 5821 5822 5822 5820 5821 5822 5819 5820 5819 5819 5818 5817 5817 5816 5814 5813 5811 5808 5808 5807 5805 5803 5801 5799 5797 5795 5793 5791 5789 5788 5786 5784 5784 5783 5781 5779 5777 5776 5775 5774 5774 5773
5814 5817 5819 5820 5822 5821 5822 5822 5821 5822 5821 5821 5821 5820 5821 5821 5820 5818 5817 5817 5816 5813 5812 5811 5810 5809 5806 5804 5802 5800 5797 5793 5791 5788 5786 5784 5783 5781 5779 5778 5777 5776 5775 5773 5771 5769 5768 5766 5766
5818 5818 5820 5818 5821 5821 5820 5821 5820 5821 5822 5821 5821 5820 5820 5820 5819 5818 5818 5816 5813 5812 5811 5810 5808 5806 5804 5801 5798 5795 5792 5790 5788 5785 5783 5781 5779 5777 5775 5773 5770 5768 5766 5765 5764 5762 5760 5760 5759
5818 5817 5819 5819 5821 5821 5820 5823 5822 5822 5821 5821 5821 5820 5819 5817 5817 5817 5815 5813 5811 5809 5807 5805 5803 5801 5798 5796 5794 5791 5788 5785 5783 5780 5778 5775 5773 5770 5768 5766 5764 5763 5761 5759 5756 5754 5751 5751 5750
5821 5820 5820 5823 5822 5822 5821 5823 5822 5822 5820 5819 5818 5818 5817 5816 5814 5813 5811 5809 5807 5806 5804 5802 5799 5796 5793 5790 5788 5786 5784 5781 5779 5775 5773 5769 5766 5764 5761 5758 5756 5754 5752 5750 5748 5745 5743 5740 5739
5820 5821 5820 5823 5821 5822 5822 5823 5824 5822 5819 5818 5818 5817 5816 5814 5813 5811 5808 5805 5803 5801 5799 5796 5793 5790 5787 5786 5783 5781 5778 5776 5773 5770 5766 5762 5758 5755 5752 5749 5746 5744 5741 5739 5736 5733 5731 5730 5728
5822 5822 5819 5822 5822 5821 5822 5823 5823 5820 5819 5818 5818 5815 5814 5813 5812 5810 5808 5804 5802 5800 5797 5793 5789 5786 5783 5780 5776 5773 5769 5766 5762 5759 5755 5751 5748 5744 5741 5738 5735 5731 5729 5726 5723 5720 5718 5716 5714
5822 5822 5822 5822 5821 5822 5821 5821 5820 5819 5818 5816 5815 5813 5812 5810 5809 5807 5805 5803 5800 5795 5790 5786 5783 5779 5776 5773 5769 5765 5760 5756 5753 5749 5745 5740 5737 5733 5729 5725 5721 5718 5715 5713 5709 5707 5704 5701 5699
5822 5822 5822 5821 5821 5821 5820 5819 5818 5817 5816 5814 5812 5809 5808 5805 5803 5800 5799 5797 5794 5789 5784 5780 5776 5772 5769 5765 5762 5759 5755 5750 5745 5740 5736 5731 5727 5723 5719 5714 5709 5704 5700 5697 5694 5692 5689 5687 5684
5820 5820 5819 5820 5820 5819 5818 5817 5815 5814 5812 5811 5808 5807 5805 5803 5801 5799 5796 5792 5789 5784 5780 5776 5772 5767 5762 5758 5753 5749 5745 5741 5736 5730 5725 5719 5713 5709 5705 5701 5697 5691 5687 5682 5679 5676 5673 5670 5668
5819 5818 5817 5816 5816 5816 5814 5812 5811 5811 5809 5807 5805 5804 5802 5801 5799 5795 5791 5787 5783 5779 5774 5769 5764 5759 5754 5748 5744 5740 5735 5729 5724 5719 5715 5709 5703 5697 5691 5687 5682 5676 5670 5665 5662 5659 5657 5654 5651
5817 5816 5815 5814 5812 5813 5811 5810 5810 5808 5807 5805 5803 5801 5798 5797 5793 5788 5784 5781 5777 5772 5767 5763 5757 5751 5745 5739 5732 5727 5723 5718 5712 5705 5699 5694 5689 5683 5678 5673 5668 5663 5657 5653 5648 5644 5641 5639 5636
5813 5812 5812 5811 5811 5810 5809 5807 5806 5804 5802 5800 5798 5794 5793 5790 5787 5783 5779 5774 5769 5764 5760 5754 5748 5742 5736 5731 5725 5719 5712 5706 5699 5693 5686 5680 5674 5669 5663 5657 5651 5646 5641 5636 5632 5628 5623 5620 5617
5811 5809 5809 5808 5808 5808 5805 5804 5801 5798 5796 5793 5790 5787 5787 5785 5781 5776 5772 5767 5761 5756 5750 5744 5739 5734 5727 5721 5714 5707 5699 5691 5684 5678 5673 5667 5661 5653 5647 5641 5635 5630 5624 5619 5614 5610 5605 5599 5597
5808 5806 5805 5804 5803 5803 5800 5798 5797 5794 5789 5784 5783 5782 5780 5776 5772 5767 5762 5756 5751 5746 5740 5734 5728 5722 5715 5707 5699 5691 5684 5678 5671 5664 5658 5651 5645 5639 5631 5624 5617 5611 5605 5598 5591 5586 5582 5576 5573
5803 5802 5800 5800 5798 5797 5794 5793 5790 5787 5781 5779 5778 5774 5772 5767 5762 5757 5752 5746 5741 5735 5727 5721 5715 5709 5701 5694 5685 5676 5668 5661 5654 5648 5641 5634 5626 5619 5613 5604 5597 5590 5583 5577 5570 5564 5559 5554 5550
5797 5797 5795 5793 5793 5793 5789 5786 5782 5780 5775 5771 5768 5765 5760 5756 5750 5744 5739 5733 5728 5722 5716 5709 5702 5694 5686 5678 5671 5663 5655 5647 5639 5631 5623 5614 5605 5596 5589 5582 5575 5568 5561 5555 5548 5542 5537 5533 5528
5793 5792 5791 5788 5787 5786 5784 5783 5777 5772 5769 5765 5761 5756 5750 5745 5739 5734 5729 5722 5715 5708 5701 5695 5689 5682 5673 5666 5657 5648 5639 5631 5621 5611 5601 5593 5583 5573 5565 5558 5551 5544 5536 5531 5525 5519 5515 5511 5509
5788 5787 5785 5783 5780 5778 5776 5780 5771 5764 5762 5759 5754 5748 5742 5737 5731 5725 5718 5711 5704 5698 5692 5684 5676 5668 5658 5649 5641 5633 5623 5612 5603 5593 5581 5571 5561 5553 5544 5535 5527 5520 5513 5506 5503 5498 5493 5491 5488
5784 5781 5779 5776 5774 5770 5765 5769 5762 5757 5753 5750 5745 5741 5735 5728 5721 5715 5709 5702 5694 5686 5678 5670 5662 5654 5644 5635 5625 5615 5605 5595 5585 5573 5562 5550 5541 5532 5523 5512 5503 5495 5488 5483 5480 5475 5472 5471 5469
5779 5776 5771 5768 5766 5763 5758 5760 5752 5745 5742 5738 5734 5729 5723 5716 5710 5704 5697 5689 5681 5674 5666 5656 5647 5637 5627 5618 5608 5597 5585 5575 5564 5554 5543 5531 5521 5511 5502 5490 5479 5472 5467 5463 5461 5458 5455 5453 5452